Location: Les Martinières
(47.2667°N, 1.4410°E)
Time: 03:04:34
(UTC+00:00)

Cosmos 2333 - Pass Details

Date: 15 May 2026
Orbit: 828 x 864 km, 70.9° (Epoch: 8 June)

Event Time Altitude Azimuth Distance (km) Brightness Sun altitude
Rises 21:54:59 0° 330° (NNW) 3,427 9.1 -18.8°
Reaches altitude 10° 21:57:27 10° 328° (NNW) 2,492 7.9 -19.0°
Maximum altitude 22:03:07 66° 248° (WSW) 936 4.4 -19.4°
Enters shadow 22:05:39 34° 177° (S) 1,390 4.8 -19.6°
